This is the latest recevied weather packets stored in our database for station/object IZ3VCM. If no packets are shown the sender has not sent any weather packets the latest 10 day(s).
| Time | Temp. | Humidity | Pressure | Rain* | Wind** | Luminosity | Snow |
|---|---|---|---|---|---|---|---|
| 1777992304 | 18.89° C | 77% | 1012 hPa | 0 mm | - | - | - |
| 1777991406 | 20° C | 75% | 1011.9 hPa | 0 mm | - | - | - |
| 1777990504 | 21.11° C | 73% | 1012 hPa | 0 mm | - | - | - |
| 1777989605 | 20° C | 75% | 1012.1 hPa | 0 mm | - | - | - |
| 1777988703 | 20.56° C | 76% | 1012.4 hPa | 0 mm | - | - | - |
| 1777987805 | 18.89° C | 77% | 1012.6 hPa | 0 mm | - | - | - |
| 1777986903 | 18.89° C | 78% | 1012.5 hPa | 0 mm | - | - | - |
| 1777986006 | 18.33° C | 79% | 1012.8 hPa | 0 mm | - | - | - |
| 1777985103 | 17.78° C | 81% | 1012.9 hPa | 0 mm | - | - | - |
| 1777984205 | 16.67° C | 83% | 1013 hPa | 0 mm | - | - | - |
| 1777983303 | 16.67° C | 82% | 1013.1 hPa | 0 mm | - | - | - |
| 1777982405 | 17.22° C | 82% | 1013.1 hPa | 0 mm | - | - | - |
| 1777981503 | 17.22° C | 80% | 1013.2 hPa | 0 mm | - | - | - |
| 1777980605 | 17.78° C | 81% | 1013.1 hPa | 0 mm | - | - | - |
| 1777979703 | 17.78° C | 83% | 1013.1 hPa | 0 mm | - | - | - |
| 1777978812 | 17.22° C | 83% | 1013.2 hPa | 0 mm | - | - | - |
| 1777977902 | 17.22° C | 84% | 1013.4 hPa | 0.51 mm | - | - | - |
| 1777977005 | 16.67° C | 86% | 1013.4 hPa | 0.51 mm | - | - | - |
| 1777976103 | 15.56° C | 86% | 1013 hPa | 1.27 mm | - | - | - |
| 1777975205 | 15.56° C | 86% | 1013.2 hPa | 1.27 mm | - | - | - |
| 1777974303 | 15.56° C | 85% | 1013.3 hPa | 0.51 mm | - | - | - |
| 1777973405 | 15.56° C | 84% | 1013.8 hPa | 0.51 mm | - | - | - |
| 1777972503 | 15.56° C | 84% | 1013.9 hPa | 0.51 mm | - | - | - |
| 1777971605 | 16.11° C | 84% | 1013.5 hPa | 1.27 mm | - | - | - |
| 1777970703 | 16.11° C | 84% | 1013.5 hPa | 1.27 mm | - | - | - |
* Rain latest hour (hover to see other rain measurements)
** Current wind speed in m/s (hover to see current wind gust speed)